[[{"header":{"parameterUnit":"m.s-1","parameterCategory":1,"la1":30.2991,"la2":30.254,"lo1":-89.0895,"lo2":-89.0444,"dy":0.0017,"dx":0.0017,"nx":28,"ny":28,"refTime":"2024-08-13T09:00:00:Z","depth":0,"parameterNumber":2,"parameterNumberName":"U-component_of_WINDS"},"data":[0,0,0,0,0,0,0,0,0,0,0,0,0,0,0,0,0,0,0,0,0,0,0,0,0,0,0,0,0,0,0,0,0,0,0,0,0,0,0,0,0,0,0,0,0,0,0,0,0,0,0,0,0,0,0,0,0,0,1.6414,1.6414,0,1.6474,1.6475,1.6475,1.6419,1.6416,1.6414,1.6412,1.6481,1.6485,1.6489,0,0,0,0,0,0,0,0,0,0,0,0,0,1.6258,1.6261,1.6414,1.6414,1.6415,1.6474,1.6475,1.6476,1.6419,1.6416,1.6414,1.6411,1.648,1.6485,1.649,0,0,0,0,0,0,0,0,0,0,0,0,0,1.6323,1.6262,1.6413,1.6394,1.6393,1.6474,1.6475,1.6476,1.642,1.6416,1.6413,1.641,1.6478,1.6484,1.649,1.6596,0,0,1.6508,1.6511,0,0,0,0,0,0,0,0,1.6319,1.6329,1.6396,1.6395,1.6394,1.6435,1.6445,1.6516,1.6421,1.641,1.6412,1.6408,1.6469,1.6476,1.6495,1.6599,1.6602,1.6509,1.6513,1.6515,1.6517,0,0,0,0,0,0,0,1.6315,1.6326,1.6438,1.6397,1.6396,1.6385,1.639,1.6458,1.6458,1.641,1.6406,1.6414,1.6468,1.6489,1.6496,1.6603,1.6509,1.6514,1.6518,1.652,1.6801,1.6805,0,0,0,0,0,0,1.6311,1.6322,1.6436,1.6439,1.6347,1.639,1.6396,1.6426,1.6457,1.6459,1.6417,1.6411,1.6481,1.6489,1.6498,1.6626,1.6515,1.6521,1.6524,1.6797,1.6802,1.6806,0,0,0,0,0,0,1.6308,1.6322,1.6433,1.638,1.6393,1.6397,1.643,1.6429,1.6449,1.6462,1.6463,1.6438,1.6478,1.649,1.6572,1.6628,1.6523,1.6529,1.6793,1.6799,1.6804,1.6882,0,0,0,0,0,0,1.6304,1.6321,1.6359,1.6381,1.6396,1.6504,1.6433,1.6432,1.6459,1.6452,1.6482,1.6484,1.6477,1.6564,1.6578,1.6634,1.6534,1.6788,1.6795,1.6802,1.6875,1.689,1.6903,0,0,0,0,0,1.6299,1.638,1.6361,1.6375,1.6443,1.6507,1.6516,1.6504,1.6464,1.6504,1.6512,1.6483,1.6619,1.6573,1.6589,1.6647,1.6784,1.6793,1.6802,1.6868,1.6887,1.6903,0,0,0,0,0,0,1.6366,1.6382,1.6362,1.6452,1.6478,1.6497,1.6547,1.6524,1.6564,1.6556,1.6542,1.6549,1.6637,1.665,1.6598,1.6753,1.6696,1.6708,1.6741,1.6759,1.6773,1.6769,1.6538,0,0,0,0,0,1.6391,1.6439,1.6451,1.653,1.6544,1.6543,1.6571,1.6559,1.6587,1.6598,1.6613,1.6643,1.6693,1.6727,1.6773,1.6876,1.6884,1.6925,1.6939,1.6951,1.6962,1.7021,1.704,1.6835,1.6835,1.6834,0,0,1.6444,1.6459,1.649,1.6544,1.6563,1.6616,1.6553,1.6611,1.6651,1.6608,1.6686,1.6699,1.6732,1.6826,1.6868,1.684,1.702,1.6962,1.6971,1.6976,1.7032,1.7052,1.7069,1.6841,1.684,1.6839,0,0,1.6568,1.6582,1.665,1.6671,1.67,1.6699,1.6716,1.6739,1.6745,1.6823,1.6792,1.6841,1.6927,1.6953,1.6977,1.7113,1.7089,1.7129,1.7203,1.7261,1.7277,1.7292,1.7343,1.7361,1.714,1.714,1.714,0,1.6631,1.6706,1.6689,1.675,1.6776,1.6737,1.6808,1.683,1.6874,1.6894,1.6861,1.6969,1.6989,1.709,1.7123,1.7143,1.7165,1.7126,1.7276,1.729,1.7303,1.7352,1.7371,1.7145,1.7144,1.7144,1.7143,0,1.6783,1.6837,1.6889,1.693,1.6962,1.7028,1.7024,1.7059,1.7045,1.7049,1.7132,1.7154,1.7205,1.7228,1.7216,1.7329,1.7311,1.7277,1.722,1.7328,1.7374,1.7392,1.7152,1.715,1.7148,1.7147,0,0,1.6951,1.6983,1.7003,1.7022,1.7053,1.7095,1.7161,1.7209,1.7241,1.7273,1.733,1.7404,1.7374,1.7402,1.7392,1.7443,1.7553,1.7403,1.7404,1.7433,1.7683,1.7709,1.7731,1.7536,1.754,1.7543,1.7681,0,1.7077,1.7188,1.7176,1.7283,1.7334,1.73,1.7357,1.7384,1.739,1.7437,1.7444,1.7498,1.7453,1.747,1.7518,1.7529,1.7603,1.7519,1.7593,1.7596,1.7587,1.7754,1.7782,1.7911,1.7698,1.7701,1.7703,0,1.7239,1.7276,1.7388,1.7413,1.7434,1.7485,1.753,1.7574,1.7605,1.7607,1.7639,1.7621,1.7691,1.7631,1.7729,1.7671,1.7701,1.7712,1.7717,1.7725,1.7657,1.777,1.7952,1.7972,1.7731,1.7729,1.7727,0,1.7354,1.7431,1.7509,1.7526,1.7556,1.7594,1.7609,1.7636,1.7667,1.7708,1.7728,1.7777,1.7804,1.7844,1.7842,1.7798,1.7943,1.7881,1.7949,1.7949,1.7982,1.7981,1.8175,1.7998,1.7998,1.7997,1.7997,0,1.7497,1.7568,1.7561,1.7609,1.7688,1.7675,1.7755,1.7765,1.7791,1.7843,1.7816,1.7866,1.7859,1.7911,1.791,1.7993,1.8005,1.8011,1.801,1.8014,1.8014,1.8035,1.8027,1.8003,1.8001,1.8,1.7999,0,1.7639,1.7636,1.7719,1.7741,1.7748,1.7806,1.7826,1.7874,1.7877,1.7944,1.7959,1.7967,1.8026,1.8028,1.8096,1.8096,1.8198,1.8186,1.8187,1.8186,1.8254,1.8249,1.847,1.85,1.8302,1.8304,1.8305,0,1.7731,1.7784,1.7812,1.7844,1.7861,1.7913,1.7944,1.7934,1.7968,1.8009,1.8053,1.8109,1.8154,1.8251,1.8265,1.8318,1.8309,1.8383,1.8317,1.8321,1.8314,1.8312,1.8319,1.8397,1.8399,1.8401,1.8402,0,1.7897,1.7893,1.7938,1.7984,1.8021,1.8057,1.809,1.8118,1.8113,1.8153,1.8212,1.8247,1.8317,1.8375,1.8427,1.8446,1.8425,1.8422,1.8441,1.8448,1.8447,1.8451,1.8225,1.8418,1.8416,1.8415,1.8414,1.8414,1.8019,1.8065,1.8093,1.8144,1.8168,1.82,1.8246,1.8256,1.8304,1.8359,1.8351,1.8418,1.8452,1.8519,1.8542,1.8597,1.8572,1.8599,1.8606,1.8613,1.8622,1.8436,1.8606,1.8606,1.8606,1.8605,1.8605,0,1.8185,1.8201,1.8249,1.8295,1.8337,1.831,1.8346,1.8384,1.8443,1.8474,1.8519,1.8589,1.8646,1.8664,1.872,1.8761,1.8753,1.8776,1.8775,1.878,1.864,1.8619,1.8782,1.8782,1.8782,1.8782,1.8782,1.8782,1.8277,1.8356,1.8356,1.8448,1.8464,1.8528,1.8551,1.8582,1.8607,1.8686,1.8733,1.8743,1.8771,1.8829,1.8881,1.8886,1.8909,1.8937,1.8938,1.8807,1.8789,1.8773,1.8753,1.8942,1.8942,1.9074,1.9075,1.9076]},{"header":{"parameterUnit":"m.s-1","parameterCategory":1,"la1":30.2991,"la2":30.254,"lo1":-89.0895,"lo2":-89.0444,"dy":0.0017,"dx":0.0017,"nx":28,"ny":28,"refTime":"2024-08-13T09:00:00:Z","depth":0,"parameterNumber":3,"parameterNumberName":"V-component_of_WINDS"},"data":[0,0,0,0,0,0,0,0,0,0,0,0,0,0,0,0,0,0,0,0,0,0,0,0,0,0,0,0,0,0,0,0,0,0,0,0,0,0,0,0,0,0,0,0,0,0,0,0,0,0,0,0,0,0,0,0,0,0,3.1213,3.1215,0,3.1373,3.1375,3.1376,3.1396,3.1394,3.1393,3.1391,3.1546,3.1552,3.1557,0,0,0,0,0,0,0,0,0,0,0,0,0,3.0918,3.0923,3.1213,3.1215,3.1217,3.1372,3.1375,3.1377,3.1396,3.1394,3.1392,3.1391,3.1544,3.1551,3.1558,0,0,0,0,0,0,0,0,0,0,0,0,0,3.1058,3.0925,3.1212,3.1246,3.125,3.1372,3.1375,3.1377,3.1397,3.1394,3.1392,3.139,3.1542,3.155,3.1558,3.1656,0,0,3.1584,3.1587,0,0,0,0,0,0,0,0,3.105,3.1069,3.1239,3.1243,3.1249,3.1362,3.1327,3.147,3.1397,3.1341,3.1391,3.1389,3.1486,3.1499,3.1534,3.1663,3.167,3.1585,3.159,3.1593,3.1596,0,0,0,0,0,0,0,3.1041,3.1062,3.1276,3.1241,3.1247,3.125,3.1268,3.1355,3.1424,3.1345,3.1347,3.1366,3.1488,3.1526,3.1537,3.1672,3.1584,3.1592,3.1597,3.16,3.1891,3.1893,0,0,0,0,0,0,3.1026,3.1054,3.1271,3.1281,3.1142,3.1257,3.1277,3.1328,3.1423,3.1436,3.1368,3.1367,3.1513,3.1528,3.1543,3.1665,3.1593,3.1601,3.1606,3.1888,3.1891,3.1894,0,0,0,0,0,0,3.1019,3.1045,3.1264,3.1168,3.1196,3.1265,3.1322,3.1332,3.137,3.1441,3.1452,3.1394,3.1511,3.1531,3.1629,3.167,3.1605,3.1612,3.1885,3.1889,3.1893,3.1908,0,0,0,0,0,0,3.1011,3.1043,3.1082,3.1169,3.1201,3.1349,3.1325,3.1337,3.1385,3.1385,3.1468,3.1479,3.1511,3.1616,3.1637,3.168,3.1619,3.1881,3.1886,3.1891,3.1904,3.1912,3.1919,0,0,0,0,0,3.1,3.1077,3.1084,3.111,3.1252,3.1352,3.137,3.1408,3.1388,3.1427,3.1473,3.1477,3.1662,3.1626,3.1649,3.1696,3.1879,3.1885,3.1891,3.19,3.191,3.1918,0,0,0,0,0,0,3.099,3.1089,3.1097,3.1205,3.1271,3.1355,3.1405,3.1417,3.1486,3.1482,3.1523,3.1542,3.1638,3.1676,3.1634,3.1796,3.1768,3.1779,3.1767,3.1777,3.1785,3.1773,3.1626,0,0,0,0,0,3.1001,3.1076,3.1157,3.1245,3.1277,3.1336,3.1381,3.1405,3.1472,3.1499,3.1552,3.1615,3.1688,3.1734,3.1805,3.1909,3.1928,3.1953,3.196,3.1966,3.1975,3.2034,3.2046,3.1914,3.1914,3.1914,0,0,3.1022,3.1086,3.113,3.1244,3.1298,3.1373,3.1359,3.1438,3.1494,3.151,3.1606,3.1647,3.172,3.1822,3.1869,3.1857,3.2016,3.1974,3.1978,3.1984,3.2042,3.2054,3.2065,3.1918,3.1918,3.1917,0,0,3.1101,3.1157,3.1237,3.1292,3.1374,3.1413,3.1432,3.1516,3.1545,3.1643,3.1657,3.1722,3.1846,3.1899,3.1941,3.2042,3.2048,3.2064,3.2102,3.2159,3.217,3.2179,3.2216,3.2228,3.2073,3.2073,3.2073,0,3.1117,3.1234,3.1276,3.1356,3.1406,3.1428,3.1508,3.1558,3.1657,3.169,3.1676,3.1834,3.1885,3.2,3.2025,3.2058,3.2081,3.2054,3.2165,3.2175,3.2185,3.222,3.2234,3.2074,3.2074,3.2074,3.2074,0,3.125,3.133,3.1384,3.1484,3.154,3.1619,3.1672,3.1723,3.1742,3.1782,3.1881,3.1943,3.2028,3.2057,3.2074,3.2175,3.2165,3.2158,3.2131,3.2198,3.2232,3.2246,3.2076,3.2076,3.2075,3.2075,0,0,3.1325,3.145,3.1469,3.1515,3.1608,3.167,3.175,3.1837,3.188,3.1947,3.2015,3.2121,3.2116,3.2165,3.2189,3.2239,3.2316,3.2226,3.2228,3.2241,3.243,3.2436,3.2451,3.2321,3.2323,3.2325,3.2424,0,3.1414,3.1562,3.1603,3.1727,3.1802,3.1825,3.1895,3.1958,3.1998,3.2065,3.2107,3.2183,3.217,3.22,3.225,3.2296,3.2354,3.2289,3.2382,3.2385,3.2364,3.2468,3.2474,3.2564,3.2438,3.244,3.2442,0,3.1539,3.1614,3.1746,3.1832,3.1865,3.1928,3.2011,3.2075,3.2148,3.2173,3.2229,3.2249,3.2332,3.2301,3.2415,3.237,3.2411,3.2439,3.2443,3.2453,3.2418,3.2481,3.2594,3.2607,3.2463,3.2461,3.246,0,3.1581,3.1715,3.1812,3.1851,3.1953,3.1997,3.204,3.2111,3.2161,3.2232,3.2265,3.2344,3.2387,3.2447,3.2487,3.2461,3.2598,3.257,3.262,3.2619,3.2648,3.2645,3.2769,3.2674,3.2673,3.2673,3.2673,0,3.1677,3.1757,3.1833,3.1892,3.1983,3.2029,3.2116,3.216,3.2223,3.2291,3.2313,3.2375,3.2425,3.2493,3.2525,3.2615,3.2634,3.2656,3.2663,3.2654,3.2651,3.2681,3.2676,3.2677,3.2676,3.2675,3.2675,0,3.1739,3.1793,3.1901,3.199,3.2015,3.2077,3.2153,3.221,3.2252,3.2337,3.2359,3.2423,3.2504,3.2551,3.2653,3.2674,3.2775,3.2779,3.2751,3.2755,3.2803,3.2798,3.2949,3.2971,3.2861,3.2862,3.2863,0,3.1797,3.186,3.1958,3.2006,3.2052,3.2129,3.2182,3.2229,3.2282,3.2371,3.2417,3.2502,3.2571,3.2701,3.2754,3.2832,3.2839,3.2887,3.285,3.284,3.284,3.2836,3.2843,3.2892,3.2893,3.2894,3.2895,0,3.1894,3.1919,3.1995,3.2081,3.2144,3.2212,3.2281,3.2318,3.2377,3.2435,3.2521,3.2575,3.2682,3.2765,3.2848,3.289,3.2902,3.2906,3.2922,3.2913,3.2895,3.2906,3.2769,3.2902,3.2901,3.2901,3.29,3.29,3.1957,3.2014,3.2093,3.2177,3.2235,3.2299,3.2358,3.2409,3.2482,3.2575,3.2598,3.2688,3.276,3.2873,3.2918,3.2988,3.2979,3.3002,3.3008,3.3013,3.3015,3.2885,3.3003,3.3003,3.3003,3.3003,3.3003,0,3.2055,3.2108,3.2185,3.2283,3.2349,3.2358,3.2435,3.2488,3.2569,3.2636,3.2706,3.2805,3.2886,3.2948,3.303,3.3074,3.3082,3.3094,3.3091,3.3101,3.3018,3.2996,3.3087,3.3087,3.3087,3.3087,3.3087,3.3087,3.2115,3.2214,3.2248,3.2375,3.2426,3.2518,3.2561,3.262,3.2674,3.2785,3.2854,3.2895,3.296,3.3048,3.3122,3.3138,3.3167,3.3179,3.3195,3.3116,3.3107,3.3098,3.3078,3.3185,3.3185,3.3273,3.3274,3.3275]}]]